| time (UTC) | temp C | wind direction | speed KPH | gust KPH | rain 1hr cm | rain 24hr cm | rain mn cm | humidity % | barometer mb |
| 20260505181412 | 19 | 158 | 16.1 | 19.3 | 0.00 | 0.00 | 0.00 | 65 | 1009.4 |
| 20260505175907 | 18 | 140 | 9.7 | 17.7 | 0.00 | 0.00 | 0.00 | 66 | 1009.6 |
| 20260505174404 | 18 | 136 | 4.8 | 16.1 | 0.00 | 0.00 | 0.00 | 65 | 1009.5 |
| 20260505172859 | 18 | 128 | 9.7 | 20.9 | 0.00 | 0.00 | 0.00 | 67 | 1009.7 |
| 20260505171359 | 19 | 124 | 6.4 | 12.9 | 0.00 | 0.00 | 0.00 | 63 | 1010.0 |
| 20260505165854 | 19 | 165 | 6.4 | 9.7 | 0.00 | 0.00 | 0.00 | 63 | 1009.9 |
| 20260505164354 | 19 | 128 | 6.4 | 14.5 | 0.00 | 0.00 | 0.00 | 64 | 1010.2 |
| 20260505162849 | 20 | 156 | 4.8 | 8.0 | 0.00 | 0.00 | 0.00 | 59 | 1010.3 |
| 20260505161345 | 20 | 169 | 6.4 | 12.9 | 0.00 | 0.00 | 0.00 | 61 | 1010.6 |
| 20260505152834 | 20 | 115 | 8.0 | 16.1 | 0.00 | 0.00 | 0.00 | 61 | 1010.6 |
| 20260505151334 | 20 | 135 | 11.3 | 12.9 | 0.00 | 0.00 | 0.00 | 59 | 1010.9 |
| 20260505124308 | 17 | 211 | 4.8 | 12.9 | 0.00 | 0.00 | 0.00 | 67 | 1011.3 |
| 20260505122808 | 18 | 91 | 3.2 | 6.4 | 0.00 | 0.00 | 0.00 | 67 | 1011.1 |
| 20260505121305 | 17 | 187 | 3.2 | 9.7 | 0.00 | 0.00 | 0.00 | 68 | 1011.1 |
| 20260505115802 | 17 | 244 | 4.8 | 6.4 | 0.00 | 0.00 | 0.00 | 71 | 1011.0 |
| 20260505114259 | 16 | 233 | 8.0 | 9.7 | 0.00 | 0.00 | 0.00 | 74 | 1011.0 |
| 20260505112759 | 16 | 225 | 4.8 | 11.3 | 0.00 | 0.00 | 0.00 | 73 | 1011.2 |
| 20260505111259 | 16 | 239 | 12.9 | 14.5 | 0.00 | 0.00 | 0.00 | 72 | 1011.2 |
| 20260505101246 | 14 | 326 | 3.2 | 3.2 | 0.00 | 0.00 | 0.00 | 78 | 1010.6 |
| 20260505095747 | 14 | 218 | 0.0 | 1.6 | 0.00 | 0.00 | 0.00 | 78 | 1010.3 |
| 20260505094243 | 13 | 114 | 0.0 | 0.0 | 0.00 | 0.00 | 0.00 | 82 | 1010.0 |
| 20260505092739 | 13 | 107 | 0.0 | 3.2 | 0.00 | 0.00 | 0.00 | 83 | 1009.9 |
| 20260505091238 | 13 | 65 | 1.6 | 3.2 | 0.00 | 0.00 | 0.00 | 83 | 1010.0 |
| 20260505085737 | 13 | 114 | 0.0 | 1.6 | 0.00 | 0.00 | 0.00 | 82 | 1010.1 |
| 20260505084237 | 13 | 89 | 3.2 | 3.2 | 0.00 | 0.00 | 0.00 | 81 | 1010.2 |
| 20260505082732 | 13 | 135 | 1.6 | 3.2 | 0.00 | 0.00 | 0.00 | 80 | 1010.0 |
| 20260505081229 | 13 | 114 | 1.6 | 3.2 | 0.00 | 0.00 | 0.00 | 83 | 1010.2 |
| 20260505075728 | 12 | 36 | 0.0 | 1.6 | 0.00 | 0.00 | 0.00 | 84 | 1010.1 |
| 20260505074226 | 12 | 98 | 1.6 | 3.2 | 0.00 | 0.00 | 0.00 | 84 | 1010.2 |
| 20260505072723 | 12 | 100 | 0.0 | 0.0 | 0.00 | 0.00 | 0.00 | 84 | 1009.9 |
| 20260505071218 | 13 | 49 | 1.6 | 3.2 | 0.00 | 0.00 | 0.00 | 83 | 1009.9 |
| 20260505065713 | 13 | 47 | 3.2 | 3.2 | 0.00 | 0.00 | 0.00 | 81 | 1010.0 |
| 20260505064211 | 13 | 79 | 0.0 | 3.2 | 0.00 | 0.00 | 0.00 | 81 | 1009.8 |
| 20260505062706 | 12 | 119 | 3.2 | 3.2 | 0.00 | 0.00 | 0.00 | 83 | 1010.0 |
| 20260505061205 | 12 | 104 | 1.6 | 4.8 | 0.00 | 0.00 | 0.00 | 83 | 1010.1 |
| 20260505055700 | 12 | 164 | 1.6 | 4.8 | 0.00 | 0.00 | 0.00 | 83 | 1010.3 |
| 20260505054158 | 12 | 147 | 3.2 | 6.4 | 0.00 | 0.00 | 0.00 | 81 | 1010.3 |
| 20260505052655 | 13 | 109 | 1.6 | 4.8 | 0.00 | 0.00 | 0.00 | 80 | 1010.4 |
| 20260505051153 | 12 | 151 | 3.2 | 4.8 | 0.00 | 0.00 | 0.00 | 80 | 1010.5 |
| 20260505041145 | 14 | 134 | 3.2 | 4.8 | 0.00 | 0.00 | 0.00 | 71 | 1010.6 |
| 20260505035641 | 15 | 156 | 3.2 | 4.8 | 0.00 | 0.00 | 0.00 | 68 | 1010.7 |
| 20260505034138 | 15 | 185 | 3.2 | 8.0 | 0.00 | 0.00 | 0.00 | 65 | 1010.7 |
| 20260505032636 | 16 | 221 | 1.6 | 11.3 | 0.00 | 0.00 | 0.00 | 64 | 1010.8 |
| 20260505031131 | 15 | 195 | 9.7 | 11.3 | 0.00 | 0.00 | 0.00 | 64 | 1011.0 |
| 20260505025626 | 16 | 189 | 8.0 | 20.9 | 0.00 | 0.00 | 0.00 | 60 | 1010.9 |
| 20260505024125 | 16 | 198 | 3.2 | 6.4 | 0.00 | 0.00 | 0.00 | 61 | 1010.9 |
| 20260505022622 | 16 | 193 | 8.0 | 9.7 | 0.00 | 0.00 | 0.00 | 57 | 1011.0 |
| 20260505021118 | 16 | 190 | 6.4 | 12.9 | 0.00 | 0.00 | 0.00 | 57 | 1011.1 |
| 20260505015613 | 17 | 190 | 8.0 | 14.5 | 0.00 | 0.00 | 0.00 | 53 | 1010.9 |
| 20260505014109 | 17 | 189 | 14.5 | 19.3 | 0.00 | 0.00 | 0.00 | 52 | 1010.7 |
| 20260505012608 | 18 | 187 | 9.7 | 24.1 | 0.00 | 0.00 | 0.00 | 52 | 1010.8 |
| 20260505011104 | 18 | 201 | 8.0 | 22.5 | 0.00 | 0.00 | 0.00 | 52 | 1010.7 |
| 20260505005603 | 18 | 201 | 9.7 | 20.9 | 0.00 | 0.00 | 0.00 | 50 | 1010.4 |
| 20260505004100 | 18 | 209 | 6.4 | 17.7 | 0.00 | 0.00 | 0.00 | 51 | 1010.2 |
| 20260505002555 | 18 | 203 | 14.5 | 24.1 | 0.00 | 0.00 | 0.00 | 54 | 1010.0 |
| 20260505001054 | 18 | 183 | 8.0 | 12.9 | 0.00 | 0.00 | 0.00 | 57 | 1009.6 |
| 20260504235551 | 17 | 211 | 9.7 | 16.1 | 0.00 | 0.00 | 0.00 | 62 | 1009.4 |
| 20260504234048 | 17 | 182 | 4.8 | 12.9 | 0.00 | 0.00 | 0.00 | 64 | 1009.2 |
| 20260504232543 | 16 | 177 | 3.2 | 8.0 | 0.00 | 0.00 | 0.00 | 66 | 1009.1 |
| 20260504231039 | 16 | 150 | 4.8 | 8.0 | 0.00 | 0.00 | 0.00 | 69 | 1009.1 |
| 20260504225537 | 16 | 159 | 4.8 | 16.1 | 0.00 | 0.00 | 0.00 | 69 | 1009.0 |
| 20260504224034 | 16 | 170 | 3.2 | 11.3 | 0.00 | 0.00 | 0.00 | 68 | 1008.9 |
| 20260504222529 | 16 | 160 | 11.3 | 12.9 | 0.00 | 0.00 | 0.00 | 67 | 1009.0 |
| 20260504221026 | 16 | 141 | 8.0 | 17.7 | 0.00 | 0.00 | 0.00 | 68 | 1009.1 |
| 20260504215522 | 16 | 152 | 6.4 | 11.3 | 0.00 | 0.00 | 0.00 | 66 | 1009.4 |
| 20260504214017 | 16 | 160 | 8.0 | 17.7 | 0.00 | 0.00 | 0.00 | 66 | 1009.6 |
| 20260504212513 | 17 | 147 | 6.4 | 14.5 | 0.00 | 0.00 | 0.00 | 64 | 1009.5 |
| 20260504211011 | 17 | 191 | 4.8 | 19.3 | 0.00 | 0.00 | 0.00 | 63 | 1009.5 |
| 20260504205508 | 17 | 154 | 11.3 | 16.1 | 0.00 | 0.00 | 0.00 | 61 | 1009.5 |
| 20260504204008 | 18 | 185 | 9.7 | 19.3 | 0.00 | 0.00 | 0.00 | 59 | 1009.5 |
| 20260504202504 | 18 | 203 | 9.7 | 14.5 | 0.00 | 0.00 | 0.00 | 56 | 1009.6 |
| 20260504201001 | 19 | 195 | 3.2 | 11.3 | 0.00 | 0.00 | 0.00 | 52 | 1009.6 |
| 20260504195456 | 19 | 143 | 4.8 | 14.5 | 0.00 | 0.00 | 0.00 | 53 | 1009.6 |
| 20260504193956 | 20 | 160 | 6.4 | 12.9 | 0.00 | 0.00 | 0.00 | 48 | 1009.9 |
| 20260504192455 | 22 | 266 | 11.3 | 19.3 | 0.00 | 0.00 | 0.00 | 35 | 1010.0 |
| 20260504190953 | 22 | 230 | 16.1 | 24.1 | 0.00 | 0.00 | 0.00 | 35 | 1010.1 |
| 20260504185449 | 22 | 230 | 11.3 | 17.7 | 0.00 | 0.00 | 0.00 | 36 | 1010.5 |
| 20260504183948 | 22 | 220 | 4.8 | 17.7 | 0.00 | 0.00 | 0.00 | 35 | 1010.7 |
| 20260504182446 | 21 | 203 | 9.7 | 17.7 | 0.00 | 0.00 | 0.00 | 36 | 1010.5 |